This is the latest recevied weather packets stored in our database for station/object KD9JJA. If no packets are shown the sender has not sent any weather packets the latest 10 day(s).
| Time | Temp. | Humidity | Pressure | Rain* | Wind** | Luminosity | Snow |
|---|---|---|---|---|---|---|---|
| 1777607370 | 8.89° C | 92% | 1016.7 hPa | 0 mm | - | 0 W/m² | - |
| 1777607066 | 8.89° C | 92% | 1016.6 hPa | 0 mm | - | 0 W/m² | - |
| 1777606762 | 8.89° C | 92% | 1016.9 hPa | 0 mm | - | 0 W/m² | - |
| 1777606457 | 9.44° C | 92% | 1016.9 hPa | 0 mm | - | 0 W/m² | - |
| 1777606152 | 9.44° C | 92% | 1016.7 hPa | 0 mm | - | 0 W/m² | - |
| 1777605850 | 10° C | 92% | 1016.7 hPa | 0 mm | - | 0 W/m² | - |
| 1777605549 | 10° C | 91% | 1016.8 hPa | 0 mm | - | 0 W/m² | - |
| 1777605245 | 10° C | 91% | 1016.7 hPa | 0 mm | - | 0 W/m² | - |
| 1777604941 | 10° C | 90% | 1017 hPa | 0 mm | - | 0 W/m² | - |
| 1777604636 | 10° C | 89% | 1017 hPa | 0 mm | - | 0 W/m² | - |
| 1777604334 | 10° C | 89% | 1017.3 hPa | 0 mm | - | 0 W/m² | - |
| 1777604033 | 10.56° C | 88% | 1017.2 hPa | 0 mm | - | 0 W/m² | - |
| 1777603731 | 10.56° C | 88% | 1017.3 hPa | 0 mm | - | 0 W/m² | - |
| 1777603427 | 10.56° C | 85% | 1017 hPa | 0 mm | - | 0 W/m² | - |
| 1777603122 | 10.56° C | 87% | 1017.1 hPa | 0 mm | - | 0 W/m² | - |
| 1777602817 | 10.56° C | 88% | 1017.2 hPa | 0 mm | - | 0 W/m² | - |
| 1777602512 | 11.11° C | 85% | 1017 hPa | 0 mm | - | 0 W/m² | - |
| 1777602209 | 11.11° C | 82% | 1017.1 hPa | 0 mm | - | 0 W/m² | - |
| 1777601905 | 10.56° C | 80% | 1017.2 hPa | 0 mm | - | 0 W/m² | - |
| 1777601600 | 11.11° C | 81% | 1017 hPa | 0 mm | - | 0 W/m² | - |
| 1777601295 | 11.11° C | 82% | 1017.3 hPa | 0 mm | - | 0 W/m² | - |
| 1777600992 | 11.11° C | 85% | 1016.9 hPa | 0 mm | - | 0 W/m² | - |
| 1777600689 | 11.67° C | 85% | 1016.7 hPa | 0 mm | - | 0 W/m² | - |
| 1777600384 | 11.67° C | 84% | 1016.7 hPa | 0 mm | - | 0 W/m² | - |
| 1777600080 | 11.67° C | 83% | 1016.7 hPa | 0 mm | - | 0 W/m² | - |
* Rain latest hour (hover to see other rain measurements)
** Current wind speed in m/s (hover to see current wind gust speed)